Terug naar catalogus

YINHE 2-05

ActiefCommunicatieVLEO
NORAD 51948·PAYLOAD·🇨🇳 China
Deze satellietnaam is nog niet bevestigd door officiële bronnen.

Gelanceerd Mar 5, 2022 vanaf Xichang Satellite Launch Center

Loading…

Volgende Passages (komende 24 uur)

TLE

VersSource: Space-Track

Epoch: Sep 14, 2026, 23:06 UTC

1 51948U 22023C   26257.96309337  .00011994  00000-0  50224-3 0  9998
2 51948  63.4865 326.5371 0115772 352.2970   7.6359 15.17952227251345

Volg YINHE 2-05 in realtime met AllMySat

Download on the App Store